This demonstration page uses our WeatherBlox Daily Observations layout. Learn more.

Left ArrowRight Arrow

Hourly Observations for August 14, 2022

Temp ( °F °C ) Dew Point ( °F °C ) Humidity (%) Winds ( mph kmh ) Pressure ( in mb ) Visibility ( mi km ) Precip ( " mm )
12:53 am 00:53 Clear 70 21.1 67 19.4 90 90 E 8 13 30.00 1016 10 16 0.00 0.00
1:53 am 01:53 Clear 70 21.1 66 18.9 87 87 E 7 11 29.99 1016 10 16 0.00 0.00
2:53 am 02:53 Clear 70 21.1 66 18.9 87 87 E 7 11 29.98 1015 10 16 0.00 0.00
3:53 am 03:53 Clear 70 21.1 66 18.9 87 87 E 7 11 29.98 1015 10 16 0.00 0.00
4:53 am 04:53 Clear 67 19.4 65 18.3 93 93 ENE 7 11 29.99 1016 8 13 0.00 0.00
5:53 am 05:53 Clear with Mist and Fog 66 18.9 65 18.3 96 96 E 6 9 29.98 1015 6 10 0.00 0.00
6:53 am 06:53 Sunny with Mist and Fog 67 19.4 65 18.3 93 93 E 6 9 29.98 1015 6 10 0.00 0.00
7:53 am 07:53 Sunny 69 20.6 65 18.3 87 87 ESE 9 15 29.99 1016 10 16 0.00 0.00
8:53 am 08:53 Sunny 71 21.7 65 18.3 81 81 ESE 12 19 30.00 1016 10 16 0.00 0.00
9:53 am 09:53 Mostly Cloudy 72 22.2 65 18.3 79 79 E 14 22 30.01 1016 10 16 0.00 0.00
10:53 am 10:53 Partly Cloudy 75 23.9 65 18.3 71 71 ESE 10 17 30.01 1016 10 16 0.00 0.00
11:53 am 11:53 Sunny 79 26.1 64 17.8 60 60 ESE 13 20 29.99 1016 10 16 0.00 0.00
12:53 pm 12:53 Sunny 82 27.8 65 18.3 56 56 SE 12 19 29.98 1015 10 16 0.00 0.00
1:53 pm 13:53 Sunny 84 28.9 66 18.9 55 55 ESE 13 20 29.96 1015 10 16 0.00 0.00
2:53 pm 14:53 Sunny 87 30.6 67 19.4 51 51 ESE 15 24 29.94 1014 10 16 0.00 0.00
3:53 pm 15:53 Sunny 88 31.1 67 19.4 50 50 ESE 13 20 29.93 1014 10 16 0.00 0.00
4:53 pm 16:53 Sunny 88 31.1 68 20 52 52 E 14 22 29.93 1014 10 16 0.00 0.00
5:53 pm 17:53 Sunny 87 30.6 68 20 53 53 E 12 19 29.92 1013 10 16 0.00 0.00
6:53 pm 18:53 Sunny 86 30 68 20 55 55 E 10 17 29.92 1013 10 16 0.00 0.00
7:53 pm 19:53 Sunny 82 27.8 66 18.9 58 58 E 9 15 29.91 1013 10 16 0.00 0.00
8:53 pm 20:53 Clear 79 26.1 65 18.3 62 62 E 10 17 29.90 1013 10 16 0.00 0.00
9:53 pm 21:53 Clear 77 25 63 17.2 62 62 ESE 14 22 29.91 1013 10 16 0.00 0.00
10:53 pm 22:53 Clear 76 24.4 62 16.7 62 62 E 13 20 29.93 1014 10 16 0.00 0.00
11:53 pm 23:53 Clear 74 23.3 63 17.2 69 69 ESE 13 20 29.92 1013 10 16 0.00 0.00

Powered by AerisWeather